sat.trackr.live / text

‹ back to catalog

2026-134H

NORAD 69545 · 2026-134H

PAYLOAD ACTIVE UNKNOWN

§ Identity

Operator
Country
PRC
Launch date
2026-06-15
Launch site
JSC
Launch vehicle
Mass (kg)
RCS (m²)

External: N2YO · Heavens-Above · Gunter

§ Orbital elements

Epoch: 2026-09-19T10:14:53.504160Z

Period
95.39 min
Inclination
97.6945°
Eccentricity
0.0016882
Mean motion
15.09640430 rev/d
Perigee alt
525.6 km
Apogee alt
549.0 km
Semi-major
6,915.4 km
B*
2.0878e-4
RAAN
332.9758°
Arg perigee
311.9328°
Mean anomaly
48.0460°
Rev number
1,451

§ Raw data

2026-134H1 69545U 26134H   26262.42700815  .00003303  00000+0  20878-3 0  99962 69545  97.6945 332.9758 0016882 311.9328  48.0460 15.09640430 14515

JSON: /api/v1/satellites/69545 · /tle

For live sub-satellite position, see the globe view (requires WebGL).

§ Visibility from observer

Set your observer location to see the next 7 days of passes ≥ 10°. The values pass through the URL so the page stays shareable.

No JS? Fill the form by hand. The geolocation button needs JavaScript.